Total_Precipitation_Accumulation
0.20 0.27 0.54 0.56 0.53 0.47 0.44 0.42 0.47 0.46 0.44 0.46 0.49 0.53 0.52 0.49 0.43 0.40 0.39 0.43 0.53 0.67 0.77 0.82 0.79 0.71 0.65 0.60 0.45 0.31 0.27 0.23 0.19 0.16 0.16 0.20 0.27 0.28 0.24 0.22 0.24 0.29 0.38
0.17 0.28 0.56 0.60 0.61 0.59 0.56 0.47 0.42 0.44 0.45 0.48 0.55 0.57 0.57 0.54 0.48 0.42 0.43 0.51 0.61 0.73 0.76 0.77 0.69 0.55 0.51 0.46 0.33 0.24 0.20 0.14 0.10 0.07 0.05 0.09 0.17 0.25 0.25 0.22 0.25 0.34 0.40
0.19 0.33 0.54 0.64 0.66 0.68 0.61 0.49 0.41 0.41 0.47 0.53 0.57 0.59 0.62 0.60 0.52 0.51 0.53 0.59 0.68 0.79 0.73 0.64 0.55 0.43 0.37 0.30 0.23 0.20 0.17 0.13 0.09 0.07 0.08 0.12 0.18 0.27 0.27 0.25 0.31 0.39 0.44
0.27 0.43 0.53 0.69 0.71 0.72 0.68 0.57 0.50 0.46 0.51 0.57 0.63 0.67 0.71 0.68 0.60 0.63 0.63 0.63 0.66 0.72 0.64 0.52 0.50 0.41 0.31 0.25 0.22 0.23 0.22 0.17 0.11 0.11 0.15 0.16 0.20 0.34 0.35 0.35 0.43 0.46 0.44
0.45 0.55 0.70 0.80 0.80 0.80 0.74 0.68 0.62 0.58 0.60 0.65 0.69 0.77 0.77 0.77 0.74 0.79 0.72 0.64 0.59 0.54 0.51 0.44 0.39 0.36 0.28 0.25 0.23 0.24 0.22 0.19 0.14 0.13 0.15 0.18 0.24 0.46 0.46 0.41 0.39 0.37 0.35
0.63 0.72 0.92 1.04 1.02 0.95 0.86 0.80 0.76 0.71 0.70 0.72 0.76 0.83 0.89 0.90 0.88 0.85 0.71 0.58 0.50 0.45 0.45 0.42 0.34 0.31 0.29 0.25 0.23 0.23 0.21 0.16 0.13 0.13 0.14 0.20 0.32 0.55 0.50 0.39 0.37 0.38 0.39
0.75 0.89 1.11 1.26 1.28 1.13 1.01 0.95 0.93 0.90 0.89 0.87 0.86 0.93 1.01 1.01 0.95 0.88 0.68 0.50 0.42 0.42 0.44 0.44 0.39 0.35 0.33 0.29 0.25 0.23 0.19 0.13 0.11 0.11 0.15 0.23 0.38 0.55 0.50 0.46 0.44 0.45 0.45
0.90 1.03 1.25 1.41 1.36 1.27 1.24 1.16 1.15 1.15 1.08 1.03 1.02 1.11 1.14 1.08 0.96 0.86 0.72 0.57 0.45 0.40 0.41 0.42 0.43 0.40 0.36 0.33 0.30 0.26 0.17 0.12 0.10 0.11 0.16 0.24 0.37 0.50 0.50 0.48 0.47 0.47 0.45
1.18 1.30 1.44 1.47 1.39 1.29 1.22 1.24 1.25 1.30 1.31 1.19 1.10 1.14 1.14 1.06 0.92 0.84 0.68 0.63 0.54 0.48 0.44 0.42 0.40 0.42 0.40 0.35 0.32 0.25 0.16 0.11 0.10 0.10 0.14 0.25 0.37 0.50 0.51 0.47 0.44 0.43 0.41
1.65 1.67 1.68 1.69 1.58 1.40 1.23 1.28 1.29 1.26 1.23 1.24 1.15 1.00 0.94 0.87 0.77 0.75 0.57 0.56 0.56 0.51 0.45 0.42 0.40 0.43 0.39 0.31 0.27 0.22 0.16 0.13 0.12 0.10 0.16 0.23 0.36 0.46 0.44 0.44 0.41 0.43 0.43
2.10 2.10 1.96 1.92 1.81 1.72 1.55 1.42 1.45 1.33 1.22 1.17 1.12 0.95 0.88 0.93 0.81 0.63 0.43 0.42 0.46 0.46 0.43 0.40 0.38 0.38 0.32 0.25 0.22 0.20 0.19 0.17 0.15 0.16 0.17 0.23 0.38 0.49 0.50 0.48 0.45 0.45 0.47
2.30 2.31 2.22 2.12 2.01 2.00 1.75 1.61 1.64 1.47 1.30 1.15 1.03 1.02 0.95 0.94 0.89 0.68 0.53 0.42 0.45 0.43 0.43 0.45 0.45 0.39 0.30 0.23 0.20 0.18 0.20 0.19 0.21 0.18 0.17 0.23 0.36 0.48 0.58 0.56 0.47 0.43 0.46
2.65 2.60 2.46 2.37 2.25 2.20 2.07 1.75 1.67 1.54 1.43 1.32 1.14 1.09 1.06 1.06 0.99 0.87 0.76 0.60 0.55 0.45 0.45 0.46 0.48 0.39 0.32 0.29 0.26 0.21 0.19 0.20 0.23 0.20 0.17 0.19 0.31 0.47 0.59 0.60 0.53 0.47 0.46
2.72 2.81 2.67 2.55 2.43 2.34 2.25 2.01 1.76 1.63 1.46 1.35 1.21 1.08 1.14 1.15 1.03 0.89 0.78 0.68 0.61 0.50 0.47 0.47 0.44 0.38 0.32 0.29 0.26 0.26 0.24 0.24 0.23 0.23 0.20 0.19 0.26 0.40 0.53 0.60 0.59 0.58 0.56
2.59 2.85 2.86 2.76 2.59 2.41 2.34 2.21 1.93 1.67 1.46 1.41 1.41 1.25 1.10 1.05 0.97 0.90 0.78 0.77 0.68 0.58 0.55 0.51 0.47 0.44 0.40 0.36 0.29 0.27 0.26 0.25 0.22 0.22 0.20 0.18 0.21 0.31 0.47 0.57 0.65 0.73 0.77
2.46 2.71 2.87 2.97 2.87 2.61 2.35 2.20 2.06 1.85 1.66 1.61 1.54 1.42 1.30 1.18 1.07 0.96 0.83 0.80 0.75 0.64 0.56 0.55 0.52 0.50 0.46 0.41 0.36 0.31 0.27 0.26 0.23 0.21 0.19 0.19 0.21 0.26 0.36 0.47 0.60 0.79 0.90
2.56 2.67 2.84 2.99 3.09 2.94 2.65 2.39 2.22 2.03 1.84 1.72 1.66 1.67 1.56 1.39 1.22 1.14 0.98 0.84 0.78 0.80 0.75 0.70 0.67 0.56 0.46 0.41 0.37 0.35 0.34 0.32 0.28 0.24 0.20 0.18 0.20 0.22 0.27 0.39 0.53 0.71 0.86
2.85 2.87 3.00 2.98 3.08 3.12 3.00 2.69 2.38 2.20 2.00 1.76 1.57 1.59 1.64 1.54 1.39 1.31 1.23 1.08 0.97 0.93 0.92 0.81 0.70 0.66 0.53 0.43 0.36 0.33 0.31 0.31 0.29 0.27 0.23 0.19 0.17 0.18 0.22 0.30 0.40 0.55 0.69
2.95 3.07 3.24 3.21 3.04 3.09 3.20 3.11 2.69 2.36 2.12 1.90 1.65 1.50 1.54 1.59 1.50 1.36 1.22 1.21 1.22 1.12 1.00 0.91 0.76 0.75 0.68 0.54 0.46 0.40 0.34 0.31 0.29 0.28 0.26 0.23 0.20 0.18 0.19 0.23 0.29 0.35 0.49
2.94 3.01 3.15 3.29 3.33 3.33 3.38 3.44 3.20 2.77 2.39 2.10 1.89 1.70 1.60 1.62 1.62 1.53 1.35 1.29 1.32 1.29 1.20 1.10 0.98 0.86 0.79 0.74 0.64 0.49 0.39 0.33 0.30 0.29 0.27 0.24 0.22 0.21 0.20 0.22 0.24 0.26 0.31
2.76 2.85 2.88 3.00 3.19 3.30 3.36 3.34 3.20 2.85 2.61 2.34 2.07 1.95 1.84 1.73 1.70 1.72 1.56 1.48 1.48 1.44 1.40 1.37 1.32 1.18 0.99 0.94 0.86 0.65 0.46 0.36 0.32 0.28 0.28 0.28 0.26 0.25 0.25 0.26 0.27 0.29 0.32
2.31 2.66 2.71 2.79 2.89 2.96 2.97 3.15 3.28 3.14 2.83 2.62 2.40 2.16 1.98 1.83 1.72 1.72 1.74 1.66 1.55 1.54 1.52 1.48 1.41 1.29 1.18 1.11 1.03 0.95 0.75 0.56 0.40 0.33 0.31 0.31 0.30 0.30 0.30 0.31 0.34 0.36 0.37
2.03 2.44 2.63 2.73 2.84 2.83 2.95 3.32 3.54 3.54 3.21 2.88 2.60 2.35 2.11 1.98 1.91 1.76 1.66 1.67 1.63 1.59 1.56 1.53 1.54 1.55 1.44 1.32 1.21 1.25 1.06 0.78 0.58 0.44 0.37 0.35 0.38 0.39 0.37 0.38 0.40 0.44 0.45
1.76 2.07 2.32 2.63 2.84 2.96 3.05 3.18 3.23 3.04 2.84 2.53 2.42 2.36 2.26 2.14 1.99 1.92 1.85 1.75 1.70 1.64 1.58 1.60 1.61 1.62 1.66 1.56 1.41 1.31 1.20 0.98 0.90 0.69 0.51 0.47 0.49 0.51 0.51 0.48 0.47 0.48 0.50
1.52 1.82 1.98 2.21 2.50 2.71 2.85 3.02 3.13 2.95 2.68 2.53 2.47 2.40 2.29 2.22 2.08 1.95 1.90 1.88 1.82 1.72 1.65 1.65 1.68 1.66 1.68 1.67 1.59 1.47 1.39 1.20 1.03 0.96 0.76 0.62 0.61 0.57 0.57 0.56 0.55 0.53 0.54
1.29 1.59 1.76 1.95 2.17 2.41 2.52 2.71 2.94 2.84 2.58 2.33 2.26 2.25 2.15 2.07 1.96 1.83 1.79 1.78 1.75 1.69 1.63 1.58 1.61 1.63 1.62 1.57 1.52 1.44 1.41 1.33 1.17 1.14 1.03 0.83 0.79 0.73 0.72 0.71 0.67 0.64 0.61